FENGYUN 1C DEB

Satellite information

Favourite Embed

Satellite Type and Status

DEBRISIN ORBIT

Key statistics

Satellite FENGYUN 1C DEB at a glance.

Uptime

9661

Days in orbit

Revolutions

≈ 14.4

Per day

Orbit

SSO

Sun Synchronous Orbit

Inclination

98.4

Latest

Satellite identification and parameters

Extended collection of information and parameters for FENGYUN 1C DEB.

Object identification

Identified? True

Debris? True

Object name: FENGYUN 1C DEB

International designator: 1999-025CLU

Object number (NORAD): 31917

Object ID (CCSDS): 31917

Country: PEOPLES REPUBLIC OF CHINA (PRC)

Current information (Y/N): Y

RCS size: SMALL

Orbital parameters

Period: 100.194 minutes

Inclination: 98.3587 deg

SMA: 7145.847 km

Apoapsis: 905.186 km

Periapsis: 630.239 km

RAAN: 284.5608 deg

Eccentricy: 0.0192382

Argument of periapsis: 102.3316 deg

Mean anomaly: 275.7825 deg

Mean motion: 14.37216393 rev/day

Mean motion (dot): 0.00002285 rev/day2

B* drag term: 0.00063276 1/REarth

Two-line elements (TLE)

Creation date: Oct. 17, 2025, 8:06 p.m.

Reference frame: TEME

Reference center: EARTH

Epoch: Oct. 17, 2025, 5:50 a.m. UTC

TLE line 0: 0 FENGYUN 1C DEB

TLE line 1: 1 31917U 99025CLU 25290.24329528 .00002285 00000-0 63276-3 0 9993

TLE line 2: 2 31917 98.3587 284.5608 0192382 102.3316 275.7825 14.37216393956103

Live tracking on map

Real-time ground track for satellite FENGYUN 1C DEB.

In-orbit conjunctions

A list of the most updated potential collisions computed for object FENGYUN 1C DEB.

Target Orbit TCA Probability of collision Miss distance Type
CZ-6A DEB LEO 2025-03-24 23:48:59 0.0001939892 81.0 (m) DEBRIS
COSMOS 2251 DEB LEO 2024-09-06 15:07:04 0.0001094173 188.0 (m) DEBRIS

Associated space launch

Chinese polar orbiting meteorological satellite

FENGYUN 1C DEB was lifted into orbit during the mission ‘Long March 4B | Feng Yun 1C’, on board a Long March 4B space rocket.

The launch took place on May 10, 1999, 1:33 a.m. from Launch Complex 7.

For more information about the launch, click the button.

Launch to space Long March 4B | Feng Yun 1C
Long March 4B | Feng Yun 1C

Agency: N/A

Status: Launch Successful

Launch date: May 10, 1999, 1:33 a.m. UTC

Rocket: Long March 4B

Launch pad: Launch Complex 7

Location: Taiyuan Satellite Launch Center, People's Republic of China

...

Latest news about this satellite

There are no fresh news available about this satellite. Check back as we update our databases every day.


Newsletter sign-up

Weekly statistics, charts and insights to help you stay on top of the space industry.